Flag Weather past 2 weeks in Midland, Texas, U.S.A.

Now
57 °F

Sunny.


Feels Like: 55 °F
Forecast: 40 / 61 °F
Wind: 10 mph from North

Location: Midland - Midland Airpark

Current Time: Nov 26, 2014 at 12:03:11 PM

Latest Report: Nov 26, 2014 at 11:35 AM


Visibility: 10 mi

Pressure: 30.28 "Hg

Humidity: 27%

Dew point: 23 °F

Location of MidlandLocation

Historic Weather in Midland — Graph

°F

Midland temperature yesterday

Maximum temperature yesterday: 56 °F (at 2:55 PM)
Minimum temperature yesterday: 34 °F (at 7:55 AM)
Average temperature yesterday: 45 °F

Past Weeks' High & Low Weather Summary

 TemperatureHumidityPressure
High72 °F (Nov 20, 2:55 PM)100% (Nov 21, 4:55 AM)30.56 "Hg (Nov 21, 4:55 AM)
Low23 °F (Nov 17, 7:15 AM)12% (Nov 19, 2:55 PM)29.64 "Hg (Nov 23, 4:35 AM)
Average45 °F53%30.14 "Hg
* Reported Nov 11 10:15 AM — Nov 26 10:55 AM, Midland, Weather by CustomWeather, © 2014

Note: Actual official high and low records may vary slightly from our data, if they occured in-between our weather recording intervals... More about our weather records

Advertising

Midland weather history for previous 24 hours

 ConditionsComfort  
Time TempWeatherWind HumidityBarometerVisibility
10:55 AM
Nov 26
56 °FSunny.10 mph26%30.29 "Hg10 mi
10:35 AM56 °FSunny.14 mph25%30.28 "Hg10 mi
10:15 AM56 °FSunny.17 mph24%30.28 "Hg10 mi
9:55 AM57 °FSunny.14 mph23%30.28 "Hg10 mi
9:35 AM55 °FSunny.10 mph24%30.26 "Hg10 mi
9:15 AM53 °FSunny.10 mph24%30.26 "Hg10 mi
8:55 AM51 °FSunny.10 mph25%30.25 "Hg10 mi
8:35 AM48 °FSunny.9 mph28%30.23 "Hg10 mi
8:15 AM46 °FSunny.8 mph29%30.22 "Hg10 mi
7:55 AM44 °FSunny.8 mph31%30.21 "Hg10 mi
7:35 AM44 °FSunny.9 mph32%30.20 "Hg10 mi
7:15 AM43 °FClear.9 mph32%30.19 "Hg10 mi
6:55 AM43 °FClear.10 mph33%30.19 "Hg10 mi
6:35 AM43 °FClear.10 mph33%30.19 "Hg10 mi
6:15 AM44 °FClear.9 mph32%30.17 "Hg10 mi
5:55 AM45 °FClear.10 mph30%30.16 "Hg10 mi
5:15 AM46 °FClear.8 mph29%30.16 "Hg10 mi
4:55 AM46 °FClear.10 mph29%30.14 "Hg10 mi
4:35 AM46 °FClear.10 mph29%30.14 "Hg10 mi
4:15 AM45 °FClear.12 mph29%30.13 "Hg10 mi
3:55 AM45 °FClear.10 mph29%30.13 "Hg10 mi
3:15 AM45 °FClear.10 mph28%30.14 "Hg10 mi
2:55 AM45 °FClear.13 mph29%30.14 "Hg10 mi
2:15 AM46 °FClear.8 mph28%30.14 "Hg10 mi
1:55 AM45 °FClear.10 mph28%30.12 "Hg10 mi
1:15 AM46 °FClear.10 mph28%30.14 "Hg10 mi
12:55 AM46 °FClear.12 mph28%30.14 "Hg10 mi
12:35 AM46 °FClear.13 mph27%30.14 "Hg10 mi
12:15 AM46 °FClear.10 mph28%30.14 "Hg10 mi
11:35 PM
Nov 25
47 °FClear.12 mph26%30.15 "Hg10 mi
11:15 PM48 °FClear.13 mph25%30.14 "Hg10 mi
10:55 PM48 °FClear.8 mph25%30.14 "Hg10 mi
10:35 PM49 °FClear.9 mph24%30.14 "Hg10 mi
10:15 PM50 °FClear.9 mph23%30.14 "Hg10 mi
9:35 PM48 °FClear.9 mph27%30.14 "Hg10 mi
8:55 PM48 °FClear.10 mph26%30.14 "Hg10 mi
8:15 PM49 °FClear.14 mph25%30.14 "Hg10 mi
7:55 PM50 °FClear.12 mph25%30.14 "Hg10 mi
7:15 PM50 °FClear.9 mph26%30.16 "Hg10 mi
6:55 PM50 °FClear.8 mph25%30.18 "Hg10 mi
6:35 PM51 °FClear.7 mph25%30.18 "Hg10 mi
6:15 PM52 °FClear.8 mph24%30.18 "Hg10 mi
5:55 PM52 °FClear.8 mph23%30.19 "Hg10 mi
5:35 PM54 °FSunny.14 mph20%30.19 "Hg10 mi
5:15 PM54 °FSunny.16 mph19%30.19 "Hg10 mi
4:55 PM55 °FSunny.15 mph18%30.19 "Hg10 mi
4:35 PM56 °FSunny.17 mph20%30.19 "Hg10 mi
4:15 PM56 °FSunny.17 mph19%30.20 "Hg10 mi
3:55 PM56 °FSunny.18 mph21%30.22 "Hg10 mi
3:15 PM56 °FSunny.15 mph21%30.24 "Hg10 mi
2:55 PM56 °FSunny.12 mph23%30.24 "Hg10 mi
2:35 PM56 °FSunny.14 mph24%30.25 "Hg10 mi
2:15 PM56 °FSunny.13 mph26%30.26 "Hg10 mi
1:55 PM55 °FSunny.12 mph25%30.28 "Hg10 mi
1:15 PM54 °FSunny.10 mph30%30.31 "Hg10 mi
12:55 PM53 °FSunny.10 mph32%30.33 "Hg10 mi
12:15 PM52 °FSunny.3 mph36%30.35 "Hg10 mi
Weather by CustomWeather, © 2014

See weather overviewHow to use our weather pages